Vinton, IA

2:37 AM CDT on July 27, 2017 (GMT -0500)
Vinton-Veterans Memorial

Weather History for KVTI - October, 2012

Change the Weather History Date:

Wednesday, October 24, 2012

  Actual Average Record
Temperature  
Mean Temperature 70 °F -  
Max Temperature 79 °F 60 °F 81 °F (1963)
Min Temperature 62 °F 38 °F 21 °F (1960)
Cooling Degree Days 6    
Growing Degree Days 20 (Base 50)    
Moisture  
Dew Point 63 °F    
Average Humidity 75    
Maximum Humidity 91    
Minimum Humidity 58    
Precipitation  
Precipitation 0.00 in - - ()
Sea Level Pressure  
Sea Level Pressure 29.77 in    
Wind  
Wind Speed 10 mph (South)    
Max Wind Speed 18 mph    
Max Gust Speed 24 mph    
Visibility 10 miles    
Events      
Averages and records for this station are not official NWS values.
T = Trace of Precipitation, MM = Missing Value Source: NWS Daily Summary

Daily Weather History Graph

Daily Weather History Graph

Search for Another Location

Airport or City:

Trip Planner

Search our weather history database for the weather conditions in past years. The results will help you decide how hot, cold, wet, or windy it might be!

Date:

Astronomy

Oct. 24, 2012 Rise Set
Actual Time 7:31 AM CDT 6:11 PM CDT
Civil Twilight 7:03 AM CDT 6:40 PM CDT
Nautical Twilight 6:30 AM CDT 7:13 PM CDT
Astronomical Twilight 5:58 AM CDT 7:45 PM CDT
Moon 3:32 PM CDT (10/24) 2:22 AM CDT (10/24)
Length of Visible Light 11h 37m
Length of Day
10h 39m
Waxing Gibbous, 76% of the Moon is Illuminated
Oct 24
Waxing Gibbous
Oct 29
Full
Nov 6
Last Quarter
Nov 13
New
Nov 20
First Quarter

Hourly Weather History & Observations

Time (CDT) Temp. Dew Point Humidity Pressure Visibility Wind Dir Wind Speed Gust Speed Precip Events Conditions
12:15 AM 69.8 °F 63.9 °F 81% 29.81 in 10.0 mi South 9.2 mph - N/A   Scattered Clouds
12:35 AM 69.8 °F 63.7 °F 81% 29.81 in 10.0 mi South 11.5 mph 16.1 mph N/A   Scattered Clouds
12:55 AM 69.8 °F 63.9 °F 81% 29.81 in 10.0 mi South 11.5 mph - N/A   Scattered Clouds
1:15 AM 69.8 °F 63.7 °F 81% 29.81 in 10.0 mi South 9.2 mph - N/A   Mostly Cloudy
1:35 AM 69.8 °F 63.7 °F 81% 29.81 in 10.0 mi South 9.2 mph - N/A   Mostly Cloudy
1:55 AM 69.8 °F 63.1 °F 79% 29.82 in 10.0 mi South 9.2 mph - N/A   Overcast
2:15 AM 69.8 °F 63.0 °F 79% 29.82 in 10.0 mi South 9.2 mph - N/A   Mostly Cloudy
2:35 AM 69.8 °F 63.1 °F 79% 29.82 in 10.0 mi South 10.4 mph - N/A   Mostly Cloudy
2:55 AM 69.8 °F 63.1 °F 79% 29.82 in 10.0 mi South 9.2 mph - N/A   Mostly Cloudy
3:15 AM 69.8 °F 63.7 °F 81% 29.81 in 10.0 mi South 9.2 mph - N/A   Scattered Clouds
3:35 AM 69.8 °F 63.9 °F 81% 29.81 in 10.0 mi South 9.2 mph - N/A   Mostly Cloudy
3:55 AM 69.8 °F 63.9 °F 81% 29.81 in 10.0 mi South 9.2 mph - N/A   Overcast
4:15 AM 69.8 °F 64.2 °F 82% 29.81 in 10.0 mi South 9.2 mph - N/A   Overcast
4:35 AM 69.3 °F 64.0 °F 83% 29.81 in 10.0 mi South 8.1 mph - N/A   Scattered Clouds
4:55 AM 67.1 °F 62.2 °F 84% 29.81 in 10.0 mi South 8.1 mph - N/A   Clear
5:15 AM 67.1 °F 62.8 °F 86% 29.82 in 10.0 mi South 6.9 mph - N/A   Clear
5:35 AM 64.6 °F 60.8 °F 88% 29.82 in 10.0 mi South 8.1 mph - N/A   Clear
5:55 AM 64.6 °F 61.2 °F 89% 29.82 in 7.0 mi SSE 8.1 mph - N/A   Clear
6:15 AM 64.6 °F 61.3 °F 89% 29.83 in 7.0 mi SSE 6.9 mph - N/A   Clear
6:35 AM 64.0 °F 61.0 °F 90% 29.83 in 7.0 mi South 9.2 mph - N/A   Clear
7:15 AM 62.8 °F 59.9 °F 90% 29.83 in 7.0 mi SSE 9.2 mph - N/A   Clear
7:35 AM 63.3 °F 60.6 °F 91% 29.83 in 7.0 mi South 8.1 mph - N/A   Scattered Clouds
7:55 AM 63.7 °F 60.8 °F 90% 29.84 in 7.0 mi South 8.1 mph - N/A   Overcast
8:15 AM 64.6 °F 61.7 °F 90% 29.84 in 5.0 mi SSE 6.9 mph - N/A   Overcast
8:35 AM 64.6 °F 61.7 °F 90% 29.84 in 7.0 mi SSE 8.1 mph - N/A   Overcast
8:55 AM 67.1 °F 63.5 °F 88% 29.83 in 7.0 mi South 8.1 mph - N/A   Overcast
9:15 AM 67.1 °F 62.8 °F 86% 29.83 in 7.0 mi SSE 11.5 mph - N/A   Overcast
9:35 AM 69.8 °F 64.9 °F 84% 29.83 in 7.0 mi South 10.4 mph - N/A   Mostly Cloudy
9:55 AM 69.8 °F 64.0 °F 82% 29.83 in 10.0 mi South 6.9 mph - N/A   Scattered Clouds
10:15 AM 69.8 °F 62.8 °F 78% 29.82 in 10.0 mi South 10.4 mph - N/A   Scattered Clouds
10:35 AM 74.7 °F 65.8 °F 74% 29.82 in 10.0 mi SSW 10.4 mph - N/A   Scattered Clouds
11:15 AM 74.7 °F 64.0 °F 69% 29.81 in 10.0 mi SSW 12.7 mph - N/A   Clear
11:35 AM 74.7 °F 63.7 °F 69% 29.80 in 10.0 mi SSW 17.3 mph - N/A   Clear
11:55 AM 77.0 °F 65.3 °F 67% 29.79 in 10.0 mi South 10.4 mph 18.4 mph N/A   Scattered Clouds
12:15 PM 77.2 °F 64.4 °F 65% 29.79 in 10.0 mi South 18.4 mph 23.0 mph N/A   Scattered Clouds
12:35 PM 77.2 °F 64.4 °F 65% 29.78 in 10.0 mi South 13.8 mph 18.4 mph N/A   Scattered Clouds
12:55 PM 77.2 °F 64.4 °F 65% 29.77 in 10.0 mi South 11.5 mph - N/A   Mostly Cloudy
1:15 PM 77.2 °F 62.4 °F 60% 29.76 in 10.0 mi South 12.7 mph 21.9 mph N/A   Mostly Cloudy
1:35 PM 77.9 °F 63.1 °F 60% 29.75 in 10.0 mi SSW 15.0 mph 19.6 mph N/A   Mostly Cloudy
1:55 PM 79.3 °F 63.7 °F 59% 29.75 in 10.0 mi South 16.1 mph 21.9 mph N/A   Mostly Cloudy
2:15 PM 79.7 °F 63.5 °F 58% 29.74 in 10.0 mi South 16.1 mph 24.2 mph N/A   Scattered Clouds
2:35 PM 79.2 °F 63.7 °F 59% 29.74 in 10.0 mi South 16.1 mph 20.7 mph N/A   Scattered Clouds
2:55 PM 77.2 °F 61.9 °F 59% 29.74 in 10.0 mi SSW 16.1 mph 24.2 mph N/A   Mostly Cloudy
3:15 PM 77.2 °F 63.0 °F 61% 29.74 in 10.0 mi SSW 13.8 mph 23.0 mph N/A   Mostly Cloudy
3:35 PM 77.2 °F 63.3 °F 62% 29.74 in 10.0 mi SSW 13.8 mph 20.7 mph N/A   Mostly Cloudy
3:55 PM 77.2 °F 63.3 °F 62% 29.74 in 10.0 mi SSW 13.8 mph 18.4 mph N/A   Mostly Cloudy
4:15 PM 77.2 °F 62.6 °F 61% 29.73 in 10.0 mi SSW 13.8 mph 19.6 mph N/A   Scattered Clouds
4:35 PM 76.6 °F 63.3 °F 63% 29.73 in 10.0 mi SW 9.2 mph 16.1 mph N/A   Scattered Clouds
4:55 PM 76.1 °F 63.1 °F 64% 29.73 in 10.0 mi WSW 6.9 mph - N/A   Scattered Clouds
5:15 PM 74.7 °F 62.6 °F 66% 29.73 in 10.0 mi WSW 5.8 mph - N/A   Mostly Cloudy
5:55 PM 74.7 °F 63.9 °F 69% 29.74 in 10.0 mi West 4.6 mph - N/A   Scattered Clouds
6:15 PM 74.7 °F 64.4 °F 70% 29.74 in 10.0 mi Calm Calm - N/A   Mostly Cloudy
6:35 PM 72.3 °F 62.2 °F 70% 29.73 in 10.0 mi Calm Calm - N/A   Mostly Cloudy
6:55 PM 72.7 °F 63.1 °F 72% 29.74 in 10.0 mi South 4.6 mph - N/A   Mostly Cloudy
7:15 PM 74.7 °F 64.0 °F 69% 29.74 in 10.0 mi Calm Calm - N/A   Mostly Cloudy
7:35 PM 74.7 °F 63.7 °F 69% 29.74 in 10.0 mi South 9.2 mph - N/A   Scattered Clouds
7:55 PM 74.7 °F 63.7 °F 69% 29.74 in 10.0 mi South 10.4 mph 16.1 mph N/A   Scattered Clouds
8:15 PM 74.7 °F 64.0 °F 69% 29.73 in 10.0 mi South 10.4 mph 16.1 mph N/A   Scattered Clouds
8:35 PM 74.7 °F 64.4 °F 70% 29.73 in 10.0 mi South 12.7 mph 18.4 mph N/A   Clear
8:55 PM 74.7 °F 65.3 °F 73% 29.72 in 10.0 mi South 11.5 mph 16.1 mph N/A   Clear
9:15 PM 72.1 °F 62.8 °F 72% 29.72 in 10.0 mi South 11.5 mph - N/A   Clear
9:35 PM 71.8 °F 63.3 °F 75% 29.72 in 10.0 mi South 10.4 mph - N/A   Clear
9:55 PM 70.5 °F 62.4 °F 75% 29.71 in 10.0 mi South 12.7 mph - N/A   Clear
10:15 PM 69.8 °F 61.7 °F 75% 29.70 in 10.0 mi South 12.7 mph 18.4 mph N/A   Clear
10:35 PM 69.8 °F 61.9 °F 76% 29.70 in 10.0 mi South 13.8 mph 19.6 mph N/A   Clear
10:55 PM 69.8 °F 61.7 °F 75% 29.70 in 10.0 mi South 12.7 mph - N/A   Clear
11:15 PM 70.5 °F 62.2 °F 75% 29.69 in 10.0 mi South 12.7 mph - N/A   Clear
11:35 PM 69.8 °F 61.3 °F 74% 29.68 in 10.0 mi South 12.7 mph 20.7 mph N/A   Clear
11:55 PM 69.8 °F 61.5 °F 75% 29.68 in 10.0 mi South 12.7 mph - N/A   Clear